[[{"header":{"parameterUnit":"m.s-1","parameterCategory":1,"la1":30.2991,"la2":30.254,"lo1":-89.0895,"lo2":-89.0444,"dy":0.0017,"dx":0.0017,"nx":28,"ny":28,"refTime":"2023-11-01T09:00:00:Z","depth":0,"parameterNumber":2,"parameterNumberName":"U-component_of_WINDS"},"data":[0,0,0,0,0,0,0,0,0,0,0,0,0,0,0,0,0,0,0,0,0,0,0,0,0,0,0,0,0,0,0,0,0,0,0,0,0,0,0,0,0,0,0,0,0,0,0,0,0,0,0,0,0,0,0,0,0,0,-4.2687,-4.2687,0,-4.2752,-4.2753,-4.2754,-4.262,-4.2616,-4.2612,-4.2608,-4.2675,-4.2681,-4.2687,0,0,0,0,0,0,0,0,0,0,0,0,0,-4.2445,-4.245,-4.2687,-4.2687,-4.2688,-4.2752,-4.2753,-4.2754,-4.2621,-4.2616,-4.2611,-4.2606,-4.2673,-4.268,-4.2687,0,0,0,0,0,0,0,0,0,0,0,0,0,-4.2534,-4.2452,-4.2686,-4.263,-4.2625,-4.2752,-4.2753,-4.2754,-4.2622,-4.2616,-4.2609,-4.2603,-4.2671,-4.2679,-4.2688,-4.2873,0,0,-4.2715,-4.2719,0,0,0,0,0,0,0,0,-4.2529,-4.2543,-4.2637,-4.2634,-4.2629,-4.2671,-4.2692,-4.2794,-4.2624,-4.2624,-4.2607,-4.26,-4.2679,-4.2687,-4.2714,-4.2876,-4.2879,-4.2716,-4.2721,-4.2725,-4.2727,0,0,0,0,0,0,0,-4.2523,-4.254,-4.2712,-4.2639,-4.2634,-4.26,-4.2606,-4.2711,-4.2687,-4.2623,-4.2613,-4.2623,-4.2676,-4.2705,-4.2714,-4.288,-4.2715,-4.2723,-4.2729,-4.2732,-4.3195,-4.3202,0,0,0,0,0,0,-4.2524,-4.2535,-4.271,-4.2714,-4.2562,-4.261,-4.2616,-4.2665,-4.2686,-4.2683,-4.2629,-4.2617,-4.2694,-4.2704,-4.2716,-4.2932,-4.2725,-4.2733,-4.2738,-4.3189,-4.3197,-4.3205,0,0,0,0,0,0,-4.252,-4.2541,-4.2708,-4.2622,-4.2641,-4.2621,-4.2677,-4.2669,-4.2699,-4.269,-4.2685,-4.2663,-4.2689,-4.2704,-4.2834,-4.2932,-4.2737,-4.2745,-4.318,-4.3191,-4.3201,-4.3366,0,0,0,0,0,0,-4.2513,-4.254,-4.2611,-4.2625,-4.2646,-4.2826,-4.2683,-4.2675,-4.2714,-4.2699,-4.2721,-4.2719,-4.2685,-4.2822,-4.2843,-4.2941,-4.2752,-4.3171,-4.3185,-4.3198,-4.3352,-4.3381,-4.3406,0,0,0,0,0,-4.2505,-4.2655,-4.2615,-4.2637,-4.2734,-4.2832,-4.2844,-4.2802,-4.2723,-4.2793,-4.2787,-4.2718,-4.2919,-4.2837,-4.2859,-4.2961,-4.3165,-4.3181,-4.3197,-4.334,-4.3375,-4.3406,0,0,0,0,0,0,-4.2653,-4.2656,-4.2611,-4.2771,-4.2802,-4.2809,-4.2896,-4.2841,-4.2896,-4.2879,-4.2825,-4.2831,-4.2972,-4.298,-4.2888,-4.314,-4.3028,-4.305,-4.3129,-4.3163,-4.319,-4.3184,-4.2759,0,0,0,0,0,-4.2705,-4.2784,-4.2782,-4.2923,-4.2941,-4.2917,-4.2958,-4.2923,-4.2953,-4.2965,-4.2969,-4.3001,-4.307,-4.3118,-4.3182,-4.3353,-4.3355,-4.3434,-4.3462,-4.3484,-4.3502,-4.3591,-4.3625,-4.3257,-4.3257,-4.3256,0,0,-4.2811,-4.2822,-4.2876,-4.2953,-4.2973,-4.3056,-4.2928,-4.3022,-4.3082,-4.2979,-4.3102,-4.3107,-4.3138,-4.329,-4.3357,-4.33,-4.3605,-4.3504,-4.3522,-4.3528,-4.3611,-4.3646,-4.3677,-4.3267,-4.3265,-4.3264,0,0,-4.3046,-4.3065,-4.3182,-4.3205,-4.3237,-4.3219,-4.3248,-4.3264,-4.3262,-4.3385,-4.3308,-4.338,-4.3502,-4.3527,-4.3556,-4.3801,-4.3739,-4.3824,-4.3965,-4.4052,-4.4081,-4.4106,-4.4191,-4.4223,-4.3843,-4.3843,-4.3843,0,-4.3174,-4.3296,-4.325,-4.3348,-4.3383,-4.3294,-4.3412,-4.3437,-4.3488,-4.3514,-4.3451,-4.3601,-4.3617,-4.3771,-4.3831,-4.3859,-4.3888,-4.382,-4.4081,-4.4106,-4.4129,-4.4209,-4.4241,-4.3853,-4.3852,-4.3851,-4.385,0,-4.3451,-4.3537,-4.3628,-4.3679,-4.3725,-4.3833,-4.3802,-4.3854,-4.3816,-4.3805,-4.393,-4.3946,-4.401,-4.4045,-4.4009,-4.4195,-4.4159,-4.409,-4.3975,-4.4174,-4.4249,-4.4279,-4.3867,-4.3863,-4.3861,-4.3858,0,0,-4.378,-4.3804,-4.3838,-4.3859,-4.3888,-4.3953,-4.4057,-4.4119,-4.4164,-4.4203,-4.4287,-4.4393,-4.4328,-4.4361,-4.4327,-4.4404,-4.4594,-4.4325,-4.4324,-4.4372,-4.4797,-4.4847,-4.4884,-4.4554,-4.456,-4.4565,-4.4794,0,-4.4011,-4.4188,-4.4149,-4.4324,-4.4401,-4.4318,-4.4408,-4.4435,-4.4428,-4.4493,-4.4485,-4.4559,-4.447,-4.4489,-4.4562,-4.4556,-4.4678,-4.4539,-4.463,-4.4634,-4.4622,-4.4923,-4.4976,-4.5192,-4.4823,-4.4828,-4.4831,0,-4.4304,-4.4353,-4.4535,-4.455,-4.4581,-4.4662,-4.4716,-4.4779,-4.4808,-4.4797,-4.4834,-4.4785,-4.4887,-4.4774,-4.4913,-4.4819,-4.4854,-4.4857,-4.4864,-4.4869,-4.4743,-4.4933,-4.526,-4.5291,-4.4877,-4.4873,-4.487,0,-4.4522,-4.4634,-4.4756,-4.4778,-4.4799,-4.4858,-4.4869,-4.4891,-4.4931,-4.4979,-4.5004,-4.5063,-4.5095,-4.5142,-4.5109,-4.5031,-4.5253,-4.5138,-4.5245,-4.5246,-4.5293,-4.529,-4.5627,-4.5322,-4.5321,-4.5321,-4.532,0,-4.4782,-4.4896,-4.4854,-4.493,-4.5055,-4.5009,-4.5134,-4.5136,-4.5156,-4.523,-4.5163,-4.5233,-4.5187,-4.5254,-4.523,-4.5347,-4.5363,-4.5356,-4.5348,-4.5361,-4.5361,-4.5381,-4.5364,-4.5329,-4.5327,-4.5326,-4.5324,0,-4.5045,-4.5022,-4.515,-4.516,-4.5165,-4.5256,-4.5264,-4.5333,-4.5322,-4.5415,-4.5435,-4.5417,-4.5491,-4.5465,-4.5545,-4.5529,-4.5677,-4.5651,-4.5667,-4.5659,-4.5767,-4.5756,-4.6126,-4.6172,-4.584,-4.5843,-4.5846,0,-4.5211,-4.5297,-4.5315,-4.536,-4.5376,-4.5449,-4.5488,-4.5447,-4.5492,-4.5531,-4.5595,-4.5664,-4.5717,-4.5841,-4.5834,-4.5895,-4.5868,-4.5994,-4.5877,-4.5886,-4.5866,-4.586,-4.5868,-4.6016,-4.602,-4.6023,-4.6026,0,-4.5508,-4.5492,-4.5552,-4.5609,-4.5658,-4.5701,-4.5738,-4.5778,-4.5739,-4.5792,-4.5867,-4.5909,-4.599,-4.6059,-4.6114,-4.6125,-4.6069,-4.6063,-4.609,-4.6103,-4.6107,-4.6103,-4.5728,-4.6054,-4.6051,-4.6049,-4.6047,-4.6046,-4.5725,-4.5796,-4.582,-4.5889,-4.5912,-4.5948,-4.6013,-4.601,-4.6072,-4.6134,-4.6107,-4.6194,-4.6219,-4.6287,-4.6306,-4.6373,-4.6324,-4.6365,-4.6374,-4.6384,-4.6397,-4.61,-4.6383,-4.6382,-4.6381,-4.6381,-4.638,0,-4.6015,-4.6026,-4.609,-4.6143,-4.6197,-4.6141,-4.6178,-4.6227,-4.6304,-4.6333,-4.6386,-4.6472,-4.6539,-4.6538,-4.6599,-4.6653,-4.6629,-4.667,-4.6664,-4.6667,-4.6438,-4.6407,-4.6689,-4.6689,-4.6689,-4.6689,-4.6689,-4.6688,-4.6172,-4.6288,-4.6276,-4.6403,-4.6413,-4.6497,-4.6523,-4.6556,-4.6578,-4.6677,-4.6732,-4.6731,-4.6747,-4.6809,-4.6868,-4.6865,-4.689,-4.6941,-4.6929,-4.6715,-4.6684,-4.6654,-4.6624,-4.6947,-4.6948,-4.7152,-4.7154,-4.7155]},{"header":{"parameterUnit":"m.s-1","parameterCategory":1,"la1":30.2991,"la2":30.254,"lo1":-89.0895,"lo2":-89.0444,"dy":0.0017,"dx":0.0017,"nx":28,"ny":28,"refTime":"2023-11-01T09:00:00:Z","depth":0,"parameterNumber":3,"parameterNumberName":"V-component_of_WINDS"},"data":[0,0,0,0,0,0,0,0,0,0,0,0,0,0,0,0,0,0,0,0,0,0,0,0,0,0,0,0,0,0,0,0,0,0,0,0,0,0,0,0,0,0,0,0,0,0,0,0,0,0,0,0,0,0,0,0,0,0,-1.7941,-1.7941,0,-1.8012,-1.8013,-1.8014,-1.8052,-1.8052,-1.8052,-1.8052,-1.8123,-1.8125,-1.8127,0,0,0,0,0,0,0,0,0,0,0,0,0,-1.7832,-1.7834,-1.7941,-1.7941,-1.7942,-1.8012,-1.8013,-1.8014,-1.8052,-1.8052,-1.8052,-1.8052,-1.8123,-1.8125,-1.8127,0,0,0,0,0,0,0,0,0,0,0,0,0,-1.7889,-1.7834,-1.794,-1.797,-1.7973,-1.8012,-1.8013,-1.8015,-1.8052,-1.8052,-1.8052,-1.8052,-1.8122,-1.8125,-1.8128,-1.8142,0,0,-1.8136,-1.8137,0,0,0,0,0,0,0,0,-1.7886,-1.7893,-1.7964,-1.7968,-1.7972,-1.8023,-1.8001,-1.8057,-1.8052,-1.8022,-1.8052,-1.8052,-1.809,-1.8095,-1.8109,-1.8146,-1.8149,-1.8136,-1.8138,-1.8139,-1.814,0,0,0,0,0,0,0,-1.7882,-1.789,-1.7969,-1.7965,-1.797,-1.7978,-1.7986,-1.8012,-1.8054,-1.8024,-1.8027,-1.8036,-1.8092,-1.8106,-1.811,-1.815,-1.8136,-1.8139,-1.814,-1.8141,-1.82,-1.82,0,0,0,0,0,0,-1.7873,-1.7886,-1.7967,-1.7971,-1.7928,-1.798,-1.7989,-1.8007,-1.8054,-1.8062,-1.8035,-1.8037,-1.8101,-1.8107,-1.8113,-1.8132,-1.8139,-1.8142,-1.8143,-1.82,-1.82,-1.82,0,0,0,0,0,0,-1.7871,-1.788,-1.7964,-1.793,-1.7941,-1.7982,-1.8001,-1.8008,-1.8022,-1.8062,-1.807,-1.8042,-1.8101,-1.8109,-1.8134,-1.8135,-1.8143,-1.8145,-1.82,-1.82,-1.82,-1.8171,0,0,0,0,0,0,-1.7868,-1.7879,-1.7886,-1.793,-1.7943,-1.7985,-1.8001,-1.8009,-1.8027,-1.803,-1.8071,-1.8078,-1.8102,-1.813,-1.8137,-1.8139,-1.8147,-1.82,-1.82,-1.82,-1.8172,-1.817,-1.8168,0,0,0,0,0,-1.7864,-1.7876,-1.7887,-1.7896,-1.7953,-1.7985,-1.7992,-1.8021,-1.8027,-1.8034,-1.8059,-1.8076,-1.8134,-1.8132,-1.8141,-1.8143,-1.82,-1.82,-1.82,-1.8173,-1.817,-1.8168,0,0,0,0,0,0,-1.7832,-1.7882,-1.7895,-1.7921,-1.7948,-1.7991,-1.8001,-1.8018,-1.8044,-1.8045,-1.8079,-1.8087,-1.8109,-1.8129,-1.8126,-1.8159,-1.8169,-1.817,-1.8145,-1.8143,-1.8141,-1.8136,-1.815,0,0,0,0,0,-1.7828,-1.7851,-1.7893,-1.7912,-1.7925,-1.796,-1.7976,-1.7995,-1.8025,-1.8036,-1.8064,-1.8091,-1.8115,-1.813,-1.8155,-1.8175,-1.8183,-1.8181,-1.8179,-1.8177,-1.8178,-1.8187,-1.8186,-1.8199,-1.8199,-1.8199,0,0,-1.782,-1.785,-1.7863,-1.7906,-1.793,-1.7952,-1.797,-1.7993,-1.8009,-1.804,-1.8065,-1.8086,-1.8118,-1.814,-1.8151,-1.8157,-1.8176,-1.8177,-1.8175,-1.8177,-1.8187,-1.8186,-1.8185,-1.8199,-1.8199,-1.8199,0,0,-1.7816,-1.7842,-1.786,-1.7883,-1.7918,-1.7941,-1.7945,-1.7985,-1.8,-1.8026,-1.8048,-1.8067,-1.8108,-1.813,-1.8146,-1.8147,-1.8163,-1.8154,-1.8144,-1.8153,-1.8152,-1.8151,-1.815,-1.8149,-1.8155,-1.8155,-1.8155,0,-1.7802,-1.7837,-1.7867,-1.7888,-1.7906,-1.7934,-1.7951,-1.7971,-1.8012,-1.8023,-1.8029,-1.808,-1.8104,-1.813,-1.813,-1.8143,-1.8147,-1.815,-1.815,-1.8149,-1.8149,-1.8148,-1.8148,-1.8153,-1.8153,-1.8153,-1.8154,0,-1.7816,-1.784,-1.785,-1.7888,-1.7907,-1.7926,-1.7957,-1.7972,-1.7989,-1.8011,-1.8035,-1.8064,-1.8094,-1.8102,-1.8119,-1.813,-1.8132,-1.8143,-1.8154,-1.8146,-1.8146,-1.8146,-1.8151,-1.8152,-1.8152,-1.8152,0,0,-1.7797,-1.785,-1.7853,-1.787,-1.7909,-1.7928,-1.7946,-1.7976,-1.7987,-1.8014,-1.8029,-1.8062,-1.8072,-1.809,-1.8109,-1.8117,-1.8114,-1.8128,-1.8129,-1.8123,-1.8126,-1.8117,-1.8116,-1.8125,-1.8125,-1.8125,-1.8123,0,-1.7799,-1.7835,-1.7861,-1.7887,-1.7908,-1.7933,-1.7949,-1.7974,-1.7994,-1.8013,-1.8035,-1.8057,-1.807,-1.808,-1.809,-1.8113,-1.8115,-1.8113,-1.8138,-1.8139,-1.8129,-1.8117,-1.8108,-1.8105,-1.8123,-1.8123,-1.8123,0,-1.7806,-1.7831,-1.7859,-1.7894,-1.7903,-1.7918,-1.7945,-1.7964,-1.7992,-1.8005,-1.8024,-1.8043,-1.8062,-1.8071,-1.8096,-1.8094,-1.8106,-1.8118,-1.8119,-1.8122,-1.8131,-1.8119,-1.8105,-1.8104,-1.8124,-1.8124,-1.8124,0,-1.7788,-1.7828,-1.785,-1.7863,-1.7905,-1.7914,-1.7931,-1.7959,-1.7974,-1.7998,-1.8007,-1.8033,-1.8046,-1.8064,-1.8089,-1.8093,-1.8111,-1.8122,-1.8122,-1.8121,-1.8125,-1.8125,-1.8112,-1.8133,-1.8133,-1.8133,-1.8133,0,-1.7787,-1.7802,-1.7842,-1.7855,-1.7872,-1.7901,-1.7917,-1.7936,-1.796,-1.7976,-1.7999,-1.8013,-1.8045,-1.8063,-1.8082,-1.8099,-1.8105,-1.8116,-1.8121,-1.8114,-1.8112,-1.8122,-1.8122,-1.8133,-1.8133,-1.8133,-1.8133,0,-1.777,-1.7797,-1.7821,-1.7858,-1.7867,-1.7878,-1.7909,-1.7921,-1.7941,-1.7961,-1.7967,-1.7999,-1.802,-1.8046,-1.8077,-1.8089,-1.8104,-1.8112,-1.8095,-1.8098,-1.8096,-1.8095,-1.8088,-1.8088,-1.811,-1.811,-1.8109,0,-1.7768,-1.778,-1.7817,-1.7829,-1.7846,-1.7866,-1.7881,-1.7909,-1.7923,-1.7954,-1.7962,-1.7985,-1.8005,-1.8038,-1.8063,-1.8085,-1.8093,-1.8089,-1.8097,-1.8088,-1.8092,-1.8091,-1.8091,-1.8087,-1.8087,-1.8087,-1.8086,0,-1.776,-1.7772,-1.7793,-1.7818,-1.7835,-1.7856,-1.7878,-1.7887,-1.7918,-1.7933,-1.7955,-1.797,-1.8,-1.8022,-1.8047,-1.8064,-1.8079,-1.8083,-1.8084,-1.8077,-1.8066,-1.8071,-1.8089,-1.8084,-1.8084,-1.8084,-1.8084,-1.8084,-1.775,-1.7761,-1.7788,-1.781,-1.7829,-1.7848,-1.7861,-1.7882,-1.7902,-1.7928,-1.7943,-1.7964,-1.7988,-1.8024,-1.8039,-1.8055,-1.8061,-1.8063,-1.8063,-1.8063,-1.806,-1.8064,-1.806,-1.806,-1.806,-1.806,-1.806,0,-1.7743,-1.7761,-1.7781,-1.781,-1.7826,-1.784,-1.7864,-1.7876,-1.7895,-1.7916,-1.7935,-1.7959,-1.798,-1.8005,-1.8027,-1.8035,-1.8042,-1.8039,-1.8039,-1.8042,-1.8054,-1.8051,-1.8033,-1.8033,-1.8033,-1.8033,-1.8033,-1.8033,-1.7741,-1.776,-1.7775,-1.7803,-1.782,-1.7841,-1.7854,-1.7871,-1.7888,-1.7914,-1.7931,-1.7947,-1.797,-1.7993,-1.8012,-1.8018,-1.8025,-1.802,-1.8028,-1.8039,-1.8042,-1.8044,-1.8041,-1.8021,-1.8021,-1.8015,-1.8015,-1.8015]}]]